Find Starlink 11666

NORAD ID: 63667 Int'l Des: 2025-085 Owner: SPXS Country: US Constellation: starlink operational
LEOCIRCULAR

当前视图

正在加载3D地球...

About Starlink 11666

Starlink 11666 (NORAD 63667) is a starlink constellation satellite (v2 mini d2c) launched Apr 28, 2025 by SPXS of US. It operates in LEO, CIRCULAR orbit with a mass of 960.00 kg.

关于 Starlink 11666

正在加载描述...

即将过境

Passes for default location (London). Set your location on the main map for personalized predictions.

高度历史

Loading altitude history...

两行轨道根数

1 63667U 25085D 26170.01710484 .00147093 00000-0 11297-2 0 9995
2 63667 43.0004 28.0405 0001670 264.7267 95.3410 15.70838655 66088
Epoch: Jun 19, 2026 • Age: 50 hours

当前状态

高度 360.6 km
速度 7.69 km/s
星下点 -26.39°S, 35.37°E
发射日期 Apr 28, 2025
运行时间 1.1 years
类型 internet

技术详情

分类 Payload
质量 960.00 kg
干质量 910.00 kg
总质量 960.00 kg
长度 0.30 m
直径 4.10 m
跨度 29.00 m
形状 Box + pan
制造商 SPXS
平台类型 Starlink V2MD
阶段状态 In Orbit
所有者/国家 SPXS/US

Most Searched